#datetime,building,power
2023-01-26T00:00:00,axn,25.91
2023-01-26T00:01:00,axn,25.88
2023-01-26T00:02:00,axn,25.80
2023-01-26T00:03:00,axn,25.70
2023-01-26T00:04:00,axn,25.54
2023-01-26T00:05:00,axn,25.59
2023-01-26T00:06:00,axn,25.53
2023-01-26T00:07:00,axn,25.37
2023-01-26T00:08:00,axn,25.30
2023-01-26T00:09:00,axn,25.31
2023-01-26T00:10:00,axn,25.27
2023-01-26T00:11:00,axn,25.70
2023-01-26T00:12:00,axn,25.36
2023-01-26T00:13:00,axn,25.10
2023-01-26T00:14:00,axn,25.03
2023-01-26T00:15:00,axn,24.98
2023-01-26T00:16:00,axn,25.22
2023-01-26T00:17:00,axn,25.22
2023-01-26T00:18:00,axn,25.34
2023-01-26T00:19:00,axn,25.44
2023-01-26T00:20:00,axn,25.40
2023-01-26T00:21:00,axn,25.38
2023-01-26T00:22:00,axn,25.52
2023-01-26T00:23:00,axn,25.42
2023-01-26T00:24:00,axn,26.00
2023-01-26T00:25:00,axn,25.48
2023-01-26T00:26:00,axn,40.26
2023-01-26T00:27:00,axn,40.03
2023-01-26T00:28:00,axn,42.90
2023-01-26T00:29:00,axn,39.87
2023-01-26T00:30:00,axn,39.71
2023-01-26T00:31:00,axn,25.88
2023-01-26T00:32:00,axn,25.55
2023-01-26T00:33:00,axn,25.31
2023-01-26T00:34:00,axn,25.91
2023-01-26T00:35:00,axn,25.89
2023-01-26T00:36:00,axn,25.41
2023-01-26T00:37:00,axn,25.57
2023-01-26T00:38:00,axn,25.82
2023-01-26T00:39:00,axn,25.71
2023-01-26T00:40:00,axn,26.07
2023-01-26T00:41:00,axn,25.55
2023-01-26T00:42:00,axn,25.59
2023-01-26T00:43:00,axn,25.28
2023-01-26T00:44:00,axn,24.88
2023-01-26T00:45:00,axn,25.11
2023-01-26T00:46:00,axn,25.07
2023-01-26T00:47:00,axn,25.01
2023-01-26T00:48:00,axn,25.23
2023-01-26T00:49:00,axn,25.16
2023-01-26T00:50:00,axn,25.27
2023-01-26T00:51:00,axn,25.37
2023-01-26T00:52:00,axn,25.41
2023-01-26T00:53:00,axn,25.34
2023-01-26T00:54:00,axn,24.95
2023-01-26T00:55:00,axn,24.75
2023-01-26T00:56:00,axn,25.19
2023-01-26T00:57:00,axn,24.88
2023-01-26T00:58:00,axn,24.93
2023-01-26T00:59:00,axn,24.62
2023-01-26T01:00:00,axn,24.84
2023-01-26T01:01:00,axn,24.92
2023-01-26T01:02:00,axn,24.34
2023-01-26T01:03:00,axn,24.47
2023-01-26T01:04:00,axn,24.47
2023-01-26T01:05:00,axn,24.51
2023-01-26T01:06:00,axn,24.64
2023-01-26T01:07:00,axn,24.82
2023-01-26T01:08:00,axn,24.88
2023-01-26T01:09:00,axn,24.74
2023-01-26T01:10:00,axn,24.57
2023-01-26T01:11:00,axn,24.50
2023-01-26T01:12:00,axn,23.93
2023-01-26T01:13:00,axn,24.00
2023-01-26T01:14:00,axn,23.88
2023-01-26T01:15:00,axn,23.90
2023-01-26T01:16:00,axn,24.32
2023-01-26T01:17:00,axn,24.28
2023-01-26T01:18:00,axn,24.58
2023-01-26T01:19:00,axn,24.50
2023-01-26T01:20:00,axn,24.13
2023-01-26T01:21:00,axn,24.20
2023-01-26T01:22:00,axn,24.26
2023-01-26T01:23:00,axn,24.08
2023-01-26T01:24:00,axn,24.23
2023-01-26T01:25:00,axn,24.36
2023-01-26T01:26:00,axn,24.43
2023-01-26T01:27:00,axn,24.50
2023-01-26T01:28:00,axn,24.94
2023-01-26T01:29:00,axn,24.65
2023-01-26T01:30:00,axn,24.61
2023-01-26T01:31:00,axn,24.40
2023-01-26T01:32:00,axn,24.70
2023-01-26T01:33:00,axn,24.44
2023-01-26T01:34:00,axn,24.50
2023-01-26T01:35:00,axn,24.85
2023-01-26T01:36:00,axn,24.74
2023-01-26T01:37:00,axn,24.54
2023-01-26T01:38:00,axn,24.68
2023-01-26T01:39:00,axn,24.82
2023-01-26T01:40:00,axn,24.78
2023-01-26T01:41:00,axn,24.60
2023-01-26T01:42:00,axn,24.56
2023-01-26T01:43:00,axn,24.39
2023-01-26T01:44:00,axn,24.41
2023-01-26T01:45:00,axn,24.70
2023-01-26T01:46:00,axn,24.48
2023-01-26T01:47:00,axn,24.39
2023-01-26T01:48:00,axn,24.64
2023-01-26T01:49:00,axn,24.64
2023-01-26T01:50:00,axn,24.32
2023-01-26T01:51:00,axn,24.52
2023-01-26T01:52:00,axn,24.17
2023-01-26T01:53:00,axn,24.63
2023-01-26T01:54:00,axn,25.02
2023-01-26T01:55:00,axn,24.77
2023-01-26T01:56:00,axn,24.92
2023-01-26T01:57:00,axn,24.85
2023-01-26T01:58:00,axn,24.72
2023-01-26T01:59:00,axn,24.99
2023-01-26T02:00:00,axn,25.02
2023-01-26T02:01:00,axn,25.20
2023-01-26T02:02:00,axn,24.90
2023-01-26T02:03:00,axn,24.67
2023-01-26T02:04:00,axn,24.71
2023-01-26T02:05:00,axn,24.51
2023-01-26T02:06:00,axn,24.44
2023-01-26T02:07:00,axn,24.55
2023-01-26T02:08:00,axn,24.46
2023-01-26T02:09:00,axn,24.62
2023-01-26T02:10:00,axn,24.62
2023-01-26T02:11:00,axn,24.75
2023-01-26T02:12:00,axn,24.56
2023-01-26T02:13:00,axn,24.65
2023-01-26T02:14:00,axn,24.29
2023-01-26T02:15:00,axn,23.98
2023-01-26T02:16:00,axn,24.64
2023-01-26T02:17:00,axn,24.87
2023-01-26T02:18:00,axn,24.69
2023-01-26T02:19:00,axn,24.91
2023-01-26T02:20:00,axn,24.58
2023-01-26T02:21:00,axn,24.51
2023-01-26T02:22:00,axn,24.77
2023-01-26T02:23:00,axn,24.38
2023-01-26T02:24:00,axn,24.40
2023-01-26T02:25:00,axn,24.36
2023-01-26T02:26:00,axn,24.16
2023-01-26T02:27:00,axn,24.34
2023-01-26T02:28:00,axn,24.72
2023-01-26T02:29:00,axn,24.73
2023-01-26T02:30:00,axn,24.59
2023-01-26T02:31:00,axn,25.24
2023-01-26T02:32:00,axn,24.55
2023-01-26T02:33:00,axn,24.55
2023-01-26T02:34:00,axn,24.59
2023-01-26T02:35:00,axn,24.63
2023-01-26T02:36:00,axn,24.44
2023-01-26T02:37:00,axn,24.79
2023-01-26T02:38:00,axn,24.56
2023-01-26T02:39:00,axn,24.74
2023-01-26T02:40:00,axn,24.59
2023-01-26T02:41:00,axn,24.59
2023-01-26T02:42:00,axn,25.01
2023-01-26T02:43:00,axn,24.49
2023-01-26T02:44:00,axn,24.43
2023-01-26T02:45:00,axn,27.50
2023-01-26T02:46:00,axn,27.40
2023-01-26T02:47:00,axn,27.36
2023-01-26T02:48:00,axn,25.09
2023-01-26T02:49:00,axn,24.61
2023-01-26T02:50:00,axn,24.74
2023-01-26T02:51:00,axn,24.78
2023-01-26T02:52:00,axn,24.60
2023-01-26T02:53:00,axn,24.65
2023-01-26T02:54:00,axn,24.72
2023-01-26T02:55:00,axn,24.79
2023-01-26T02:56:00,axn,24.87
2023-01-26T02:57:00,axn,24.69
2023-01-26T02:58:00,axn,24.93
2023-01-26T02:59:00,axn,25.34
2023-01-26T03:00:00,axn,24.89
2023-01-26T03:01:00,axn,24.89
2023-01-26T03:02:00,axn,24.88
2023-01-26T03:03:00,axn,25.01
2023-01-26T03:04:00,axn,24.98
2023-01-26T03:05:00,axn,24.71
2023-01-26T03:06:00,axn,24.64
2023-01-26T03:07:00,axn,24.59
2023-01-26T03:08:00,axn,24.58
2023-01-26T03:09:00,axn,24.76
2023-01-26T03:10:00,axn,24.73
2023-01-26T03:11:00,axn,24.55
2023-01-26T03:12:00,axn,24.51
2023-01-26T03:13:00,axn,24.93
2023-01-26T03:14:00,axn,24.48
2023-01-26T03:15:00,axn,24.65
2023-01-26T03:16:00,axn,24.46
2023-01-26T03:17:00,axn,24.42
2023-01-26T03:18:00,axn,24.57
2023-01-26T03:19:00,axn,24.67
2023-01-26T03:20:00,axn,24.69
2023-01-26T03:21:00,axn,24.56
2023-01-26T03:22:00,axn,24.50
2023-01-26T03:23:00,axn,27.66
2023-01-26T03:24:00,axn,24.69
2023-01-26T03:25:00,axn,24.71
2023-01-26T03:26:00,axn,24.89
2023-01-26T03:27:00,axn,24.85
2023-01-26T03:28:00,axn,24.87
2023-01-26T03:29:00,axn,24.80
2023-01-26T03:30:00,axn,25.05
2023-01-26T03:31:00,axn,24.82
2023-01-26T03:32:00,axn,24.80
2023-01-26T03:33:00,axn,24.80
2023-01-26T03:34:00,axn,25.13
2023-01-26T03:35:00,axn,25.01
2023-01-26T03:36:00,axn,24.94
2023-01-26T03:37:00,axn,24.59
2023-01-26T03:38:00,axn,24.80
2023-01-26T03:39:00,axn,24.87
2023-01-26T03:40:00,axn,25.34
2023-01-26T03:41:00,axn,24.84
2023-01-26T03:42:00,axn,24.93
2023-01-26T03:43:00,axn,24.64
2023-01-26T03:44:00,axn,24.70
2023-01-26T03:45:00,axn,25.38
2023-01-26T03:46:00,axn,24.75
2023-01-26T03:47:00,axn,24.66
2023-01-26T03:48:00,axn,25.06
2023-01-26T03:49:00,axn,24.88
2023-01-26T03:50:00,axn,25.85
2023-01-26T03:51:00,axn,24.77
2023-01-26T03:52:00,axn,24.74
2023-01-26T03:53:00,axn,24.74
2023-01-26T03:54:00,axn,24.86
2023-01-26T03:55:00,axn,25.01
2023-01-26T03:56:00,axn,24.80
2023-01-26T03:57:00,axn,24.88
2023-01-26T03:58:00,axn,25.28
2023-01-26T03:59:00,axn,25.25
2023-01-26T04:00:00,axn,25.06
2023-01-26T04:01:00,axn,25.02
2023-01-26T04:02:00,axn,25.05
2023-01-26T04:03:00,axn,25.32
2023-01-26T04:04:00,axn,24.99
2023-01-26T04:05:00,axn,25.00
2023-01-26T04:06:00,axn,24.77
2023-01-26T04:07:00,axn,24.95
2023-01-26T04:08:00,axn,25.25
2023-01-26T04:09:00,axn,24.97
2023-01-26T04:10:00,axn,24.95
2023-01-26T04:11:00,axn,24.87
2023-01-26T04:12:00,axn,24.61
2023-01-26T04:13:00,axn,25.23
2023-01-26T04:14:00,axn,24.62
2023-01-26T04:15:00,axn,24.65
2023-01-26T04:16:00,axn,24.68
2023-01-26T04:17:00,axn,24.55
2023-01-26T04:18:00,axn,24.50
2023-01-26T04:19:00,axn,25.04
2023-01-26T04:20:00,axn,24.91
2023-01-26T04:21:00,axn,24.80
2023-01-26T04:22:00,axn,24.93
2023-01-26T04:23:00,axn,24.67
2023-01-26T04:24:00,axn,25.06
2023-01-26T04:25:00,axn,24.95
2023-01-26T04:26:00,axn,25.07
2023-01-26T04:27:00,axn,25.08
2023-01-26T04:28:00,axn,31.05
2023-01-26T04:29:00,axn,31.38
2023-01-26T04:30:00,axn,31.03
2023-01-26T04:31:00,axn,25.02
2023-01-26T04:32:00,axn,25.27
2023-01-26T04:33:00,axn,25.18
2023-01-26T04:34:00,axn,25.40
2023-01-26T04:35:00,axn,25.08
2023-01-26T04:36:00,axn,25.02
2023-01-26T04:37:00,axn,25.06
2023-01-26T04:38:00,axn,25.17
2023-01-26T04:39:00,axn,25.34
2023-01-26T04:40:00,axn,25.70
2023-01-26T04:41:00,axn,25.31
2023-01-26T04:42:00,axn,35.66
2023-01-26T04:43:00,axn,35.71
2023-01-26T04:44:00,axn,35.65
2023-01-26T04:45:00,axn,35.50
2023-01-26T04:46:00,axn,25.58
2023-01-26T04:47:00,axn,25.27
2023-01-26T04:48:00,axn,25.17
2023-01-26T04:49:00,axn,25.69
2023-01-26T04:50:00,axn,25.42
2023-01-26T04:51:00,axn,25.30
2023-01-26T04:52:00,axn,25.48
2023-01-26T04:53:00,axn,25.64
2023-01-26T04:54:00,axn,25.25
2023-01-26T04:55:00,axn,26.26
2023-01-26T04:56:00,axn,26.72
2023-01-26T04:57:00,axn,26.89
2023-01-26T04:58:00,axn,27.03
2023-01-26T04:59:00,axn,27.16
2023-01-26T05:00:00,axn,41.99
2023-01-26T05:01:00,axn,43.18
2023-01-26T05:02:00,axn,44.23
2023-01-26T05:03:00,axn,44.50
2023-01-26T05:04:00,axn,44.56
2023-01-26T05:05:00,axn,30.23
2023-01-26T05:06:00,axn,32.79
2023-01-26T05:07:00,axn,30.45
2023-01-26T05:08:00,axn,31.35
2023-01-26T05:09:00,axn,31.45
2023-01-26T05:10:00,axn,30.50
2023-01-26T05:11:00,axn,30.89
2023-01-26T05:12:00,axn,30.56
2023-01-26T05:13:00,axn,30.51
2023-01-26T05:14:00,axn,30.44
2023-01-26T05:15:00,axn,42.58
2023-01-26T05:16:00,axn,30.64
2023-01-26T05:17:00,axn,30.64
2023-01-26T05:18:00,axn,30.31
2023-01-26T05:19:00,axn,30.21
2023-01-26T05:20:00,axn,30.19
2023-01-26T05:21:00,axn,30.10
2023-01-26T05:22:00,axn,30.00
2023-01-26T05:23:00,axn,30.50
2023-01-26T05:24:00,axn,30.44
2023-01-26T05:25:00,axn,30.47
2023-01-26T05:26:00,axn,30.15
2023-01-26T05:27:00,axn,30.27
2023-01-26T05:28:00,axn,30.67
2023-01-26T05:29:00,axn,31.21
2023-01-26T05:30:00,axn,30.82
2023-01-26T05:31:00,axn,30.57
2023-01-26T05:32:00,axn,30.11
2023-01-26T05:33:00,axn,30.14
2023-01-26T05:34:00,axn,29.87
2023-01-26T05:35:00,axn,30.02
2023-01-26T05:36:00,axn,29.87
2023-01-26T05:37:00,axn,30.00
2023-01-26T05:38:00,axn,29.90
2023-01-26T05:39:00,axn,29.85
2023-01-26T05:40:00,axn,29.99
2023-01-26T05:41:00,axn,30.04
2023-01-26T05:42:00,axn,29.97
2023-01-26T05:43:00,axn,29.21
2023-01-26T05:44:00,axn,29.40
2023-01-26T05:45:00,axn,29.51
2023-01-26T05:46:00,axn,32.26
2023-01-26T05:47:00,axn,32.42
2023-01-26T05:48:00,axn,32.07
2023-01-26T05:49:00,axn,29.48
2023-01-26T05:50:00,axn,30.06
2023-01-26T05:51:00,axn,29.49
2023-01-26T05:52:00,axn,29.76
2023-01-26T05:53:00,axn,30.14
2023-01-26T05:54:00,axn,29.84
2023-01-26T05:55:00,axn,29.53
2023-01-26T05:56:00,axn,29.60
2023-01-26T05:57:00,axn,29.67
2023-01-26T05:58:00,axn,29.71
2023-01-26T05:59:00,axn,29.52
2023-01-26T06:00:00,axn,29.43
2023-01-26T06:01:00,axn,29.28
2023-01-26T06:02:00,axn,29.25
2023-01-26T06:03:00,axn,33.68
2023-01-26T06:04:00,axn,33.45
2023-01-26T06:05:00,axn,33.73
2023-01-26T06:06:00,axn,28.87
2023-01-26T06:07:00,axn,28.41
2023-01-26T06:08:00,axn,28.33
2023-01-26T06:09:00,axn,28.41
2023-01-26T06:10:00,axn,28.35
2023-01-26T06:11:00,axn,28.11
2023-01-26T06:12:00,axn,27.89
2023-01-26T06:13:00,axn,43.55
2023-01-26T06:14:00,axn,27.91
2023-01-26T06:15:00,axn,27.93
2023-01-26T06:16:00,axn,28.38
2023-01-26T06:17:00,axn,28.45
2023-01-26T06:18:00,axn,28.40
2023-01-26T06:19:00,axn,28.12
2023-01-26T06:20:00,axn,28.04
2023-01-26T06:21:00,axn,28.29
2023-01-26T06:22:00,axn,30.96
2023-01-26T06:23:00,axn,28.29
2023-01-26T06:24:00,axn,27.99
2023-01-26T06:25:00,axn,27.92
2023-01-26T06:26:00,axn,27.57
2023-01-26T06:27:00,axn,27.84
2023-01-26T06:28:00,axn,27.90
2023-01-26T06:29:00,axn,28.06
2023-01-26T06:30:00,axn,28.01
2023-01-26T06:31:00,axn,27.58
2023-01-26T06:32:00,axn,27.55
2023-01-26T06:33:00,axn,27.87
2023-01-26T06:34:00,axn,27.69
2023-01-26T06:35:00,axn,28.24
2023-01-26T06:36:00,axn,27.98
2023-01-26T06:37:00,axn,28.04
2023-01-26T06:38:00,axn,28.16
2023-01-26T06:39:00,axn,28.38
2023-01-26T06:40:00,axn,28.11
2023-01-26T06:41:00,axn,28.39
2023-01-26T06:42:00,axn,29.05
2023-01-26T06:43:00,axn,28.51
2023-01-26T06:44:00,axn,28.70
2023-01-26T06:45:00,axn,28.64
2023-01-26T06:46:00,axn,28.69
2023-01-26T06:47:00,axn,28.78
2023-01-26T06:48:00,axn,28.82
2023-01-26T06:49:00,axn,28.77
2023-01-26T06:50:00,axn,28.52
2023-01-26T06:51:00,axn,28.54
2023-01-26T06:52:00,axn,28.64
2023-01-26T06:53:00,axn,28.77
2023-01-26T06:54:00,axn,28.83
2023-01-26T06:55:00,axn,28.41
2023-01-26T06:56:00,axn,28.68
2023-01-26T06:57:00,axn,28.87
2023-01-26T06:58:00,axn,28.56
2023-01-26T06:59:00,axn,28.42
2023-01-26T07:00:00,axn,28.31
2023-01-26T07:01:00,axn,31.92
2023-01-26T07:02:00,axn,33.56
2023-01-26T07:03:00,axn,33.85
2023-01-26T07:04:00,axn,33.38
2023-01-26T07:05:00,axn,33.48
2023-01-26T07:06:00,axn,33.13
2023-01-26T07:07:00,axn,33.12
2023-01-26T07:08:00,axn,33.40
2023-01-26T07:09:00,axn,33.50
2023-01-26T07:10:00,axn,33.66
2023-01-26T07:11:00,axn,33.37
2023-01-26T07:12:00,axn,33.15
2023-01-26T07:13:00,axn,33.45
2023-01-26T07:14:00,axn,33.11
2023-01-26T07:15:00,axn,32.90
2023-01-26T07:16:00,axn,32.90
2023-01-26T07:17:00,axn,33.19
2023-01-26T07:18:00,axn,33.27
2023-01-26T07:19:00,axn,32.88
2023-01-26T07:20:00,axn,33.26
2023-01-26T07:21:00,axn,33.20
2023-01-26T07:22:00,axn,32.74
2023-01-26T07:23:00,axn,33.29
2023-01-26T07:24:00,axn,33.25
2023-01-26T07:25:00,axn,33.00
2023-01-26T07:26:00,axn,33.12
2023-01-26T07:27:00,axn,32.99
2023-01-26T07:28:00,axn,33.02
2023-01-26T07:29:00,axn,33.48
2023-01-26T07:30:00,axn,33.50
2023-01-26T07:31:00,axn,33.53
2023-01-26T07:32:00,axn,33.38
2023-01-26T07:33:00,axn,33.57
2023-01-26T07:34:00,axn,33.45
2023-01-26T07:35:00,axn,33.95
2023-01-26T07:36:00,axn,33.40
2023-01-26T07:37:00,axn,33.25
2023-01-26T07:38:00,axn,33.54
2023-01-26T07:39:00,axn,33.38
2023-01-26T07:40:00,axn,33.45
2023-01-26T07:41:00,axn,33.40
2023-01-26T07:42:00,axn,33.40
2023-01-26T07:43:00,axn,56.31
2023-01-26T07:44:00,axn,33.27
2023-01-26T07:45:00,axn,33.26
2023-01-26T07:46:00,axn,32.93
2023-01-26T07:47:00,axn,33.27
2023-01-26T07:48:00,axn,33.40
2023-01-26T07:49:00,axn,33.55
2023-01-26T07:50:00,axn,33.45
2023-01-26T07:51:00,axn,33.43
2023-01-26T07:52:00,axn,33.60
2023-01-26T07:53:00,axn,33.59
2023-01-26T07:54:00,axn,33.62
2023-01-26T07:55:00,axn,33.67
2023-01-26T07:56:00,axn,33.74
2023-01-26T07:57:00,axn,33.77
2023-01-26T07:58:00,axn,33.79
2023-01-26T07:59:00,axn,33.87
2023-01-26T08:00:00,axn,33.77
2023-01-26T08:01:00,axn,36.24
2023-01-26T08:02:00,axn,37.55
2023-01-26T08:03:00,axn,38.12
2023-01-26T08:04:00,axn,37.97
2023-01-26T08:05:00,axn,37.62
2023-01-26T08:06:00,axn,37.57
2023-01-26T08:07:00,axn,37.77
2023-01-26T08:08:00,axn,38.08
2023-01-26T08:09:00,axn,37.61
2023-01-26T08:10:00,axn,37.50
2023-01-26T08:11:00,axn,37.51
2023-01-26T08:12:00,axn,37.95
2023-01-26T08:13:00,axn,37.38
2023-01-26T08:14:00,axn,37.25
2023-01-26T08:15:00,axn,37.59
2023-01-26T08:16:00,axn,37.47
2023-01-26T08:17:00,axn,38.09
2023-01-26T08:18:00,axn,37.92
2023-01-26T08:19:00,axn,38.57
2023-01-26T08:20:00,axn,38.22
2023-01-26T08:21:00,axn,37.84
2023-01-26T08:22:00,axn,38.00
2023-01-26T08:23:00,axn,38.29
2023-01-26T08:24:00,axn,37.95
2023-01-26T08:25:00,axn,37.81
2023-01-26T08:26:00,axn,38.23
2023-01-26T08:27:00,axn,38.74
2023-01-26T08:28:00,axn,38.56
2023-01-26T08:29:00,axn,38.79
2023-01-26T08:30:00,axn,38.77
2023-01-26T08:31:00,axn,38.65
2023-01-26T08:32:00,axn,39.14
2023-01-26T08:33:00,axn,39.27
2023-01-26T08:34:00,axn,39.26
2023-01-26T08:35:00,axn,38.96
2023-01-26T08:36:00,axn,38.98
2023-01-26T08:37:00,axn,38.83
2023-01-26T08:38:00,axn,39.08
2023-01-26T08:39:00,axn,39.26
2023-01-26T08:40:00,axn,38.79
2023-01-26T08:41:00,axn,38.93
2023-01-26T08:42:00,axn,39.27
2023-01-26T08:43:00,axn,38.94
2023-01-26T08:44:00,axn,38.42
2023-01-26T08:45:00,axn,38.55
2023-01-26T08:46:00,axn,38.31
2023-01-26T08:47:00,axn,39.46
2023-01-26T08:48:00,axn,38.73
2023-01-26T08:49:00,axn,38.59
2023-01-26T08:50:00,axn,38.61
2023-01-26T08:51:00,axn,38.45
2023-01-26T08:52:00,axn,40.79
2023-01-26T08:53:00,axn,40.45
2023-01-26T08:54:00,axn,42.92
2023-01-26T08:55:00,axn,37.03
2023-01-26T08:56:00,axn,43.54
2023-01-26T08:57:00,axn,44.44
2023-01-26T08:58:00,axn,44.70
2023-01-26T08:59:00,axn,43.59
2023-01-26T09:00:00,axn,39.68
2023-01-26T09:01:00,axn,39.48
2023-01-26T09:02:00,axn,39.54
2023-01-26T09:03:00,axn,39.64
2023-01-26T09:04:00,axn,39.76
2023-01-26T09:05:00,axn,40.07
2023-01-26T09:06:00,axn,39.75
2023-01-26T09:07:00,axn,39.79
2023-01-26T09:08:00,axn,40.52
2023-01-26T09:09:00,axn,41.16
2023-01-26T09:10:00,axn,41.00
2023-01-26T09:11:00,axn,41.69
2023-01-26T09:12:00,axn,41.92
2023-01-26T09:13:00,axn,41.65
2023-01-26T09:14:00,axn,41.31
2023-01-26T09:15:00,axn,41.11
2023-01-26T09:16:00,axn,43.18
2023-01-26T09:17:00,axn,53.72
2023-01-26T09:18:00,axn,68.01
2023-01-26T09:19:00,axn,68.16
2023-01-26T09:20:00,axn,67.40
2023-01-26T09:21:00,axn,54.58
2023-01-26T09:22:00,axn,54.33
2023-01-26T09:23:00,axn,54.46
2023-01-26T09:24:00,axn,54.60
2023-01-26T09:25:00,axn,41.78
2023-01-26T09:26:00,axn,41.57
2023-01-26T09:27:00,axn,41.41
2023-01-26T09:28:00,axn,42.01
2023-01-26T09:29:00,axn,41.81
2023-01-26T09:30:00,axn,41.97
2023-01-26T09:31:00,axn,41.92
2023-01-26T09:32:00,axn,41.75
2023-01-26T09:33:00,axn,41.69
2023-01-26T09:34:00,axn,41.98
2023-01-26T09:35:00,axn,41.77
2023-01-26T09:36:00,axn,41.64
2023-01-26T09:37:00,axn,41.82
2023-01-26T09:38:00,axn,41.31
2023-01-26T09:39:00,axn,41.37
2023-01-26T09:40:00,axn,41.35
2023-01-26T09:41:00,axn,41.05
2023-01-26T09:42:00,axn,41.39
2023-01-26T09:43:00,axn,41.10
2023-01-26T09:44:00,axn,41.25
2023-01-26T09:45:00,axn,41.36
2023-01-26T09:46:00,axn,41.54
2023-01-26T09:47:00,axn,41.43
2023-01-26T09:48:00,axn,41.34
2023-01-26T09:49:00,axn,41.44
2023-01-26T09:50:00,axn,41.94
2023-01-26T09:51:00,axn,41.60
2023-01-26T09:52:00,axn,41.95
2023-01-26T09:53:00,axn,41.47
2023-01-26T09:54:00,axn,41.29
2023-01-26T09:55:00,axn,41.35
2023-01-26T09:56:00,axn,42.04
2023-01-26T09:57:00,axn,42.11
2023-01-26T09:58:00,axn,42.05
2023-01-26T09:59:00,axn,42.61
2023-01-26T10:00:00,axn,42.38
2023-01-26T10:01:00,axn,42.09
2023-01-26T10:02:00,axn,42.76
2023-01-26T10:03:00,axn,42.11
2023-01-26T10:04:00,axn,42.12
2023-01-26T10:05:00,axn,41.54
2023-01-26T10:06:00,axn,42.60
2023-01-26T10:07:00,axn,42.82
2023-01-26T10:08:00,axn,42.02
2023-01-26T10:09:00,axn,42.18
2023-01-26T10:10:00,axn,42.23
2023-01-26T10:11:00,axn,42.42
2023-01-26T10:12:00,axn,42.51
2023-01-26T10:13:00,axn,42.47
2023-01-26T10:14:00,axn,42.49
2023-01-26T10:15:00,axn,42.35
2023-01-26T10:16:00,axn,42.21
2023-01-26T10:17:00,axn,43.04
2023-01-26T10:18:00,axn,42.44
2023-01-26T10:19:00,axn,45.60
2023-01-26T10:20:00,axn,45.57
2023-01-26T10:21:00,axn,44.88
2023-01-26T10:22:00,axn,44.38
2023-01-26T10:23:00,axn,45.31
2023-01-26T10:24:00,axn,46.63
2023-01-26T10:25:00,axn,46.08
2023-01-26T10:26:00,axn,45.98
2023-01-26T10:27:00,axn,46.63
2023-01-26T10:28:00,axn,45.86
2023-01-26T10:29:00,axn,45.65
2023-01-26T10:30:00,axn,45.82
2023-01-26T10:31:00,axn,48.70
2023-01-26T10:32:00,axn,48.04
2023-01-26T10:33:00,axn,45.79
2023-01-26T10:34:00,axn,45.48
2023-01-26T10:35:00,axn,45.40
2023-01-26T10:36:00,axn,45.48
2023-01-26T10:37:00,axn,45.71
2023-01-26T10:38:00,axn,45.18
2023-01-26T10:39:00,axn,45.97
2023-01-26T10:40:00,axn,47.23
2023-01-26T10:41:00,axn,46.00
2023-01-26T10:42:00,axn,45.71
2023-01-26T10:43:00,axn,45.52
2023-01-26T10:44:00,axn,45.77
2023-01-26T10:45:00,axn,46.49
2023-01-26T10:46:00,axn,45.77
2023-01-26T10:47:00,axn,45.83
2023-01-26T10:48:00,axn,46.18
2023-01-26T10:49:00,axn,45.74
2023-01-26T10:50:00,axn,45.45
2023-01-26T10:51:00,axn,45.61
2023-01-26T10:52:00,axn,45.31
2023-01-26T10:53:00,axn,45.71
2023-01-26T10:54:00,axn,45.22
2023-01-26T10:55:00,axn,45.31
2023-01-26T10:56:00,axn,45.86
2023-01-26T10:57:00,axn,45.73
2023-01-26T10:58:00,axn,45.33
2023-01-26T10:59:00,axn,45.78
2023-01-26T11:00:00,axn,46.47
2023-01-26T11:01:00,axn,46.32
2023-01-26T11:02:00,axn,46.19
2023-01-26T11:03:00,axn,46.15
2023-01-26T11:04:00,axn,46.59
2023-01-26T11:05:00,axn,45.98
2023-01-26T11:06:00,axn,46.39
2023-01-26T11:07:00,axn,49.68
2023-01-26T11:08:00,axn,49.88
2023-01-26T11:09:00,axn,47.66
2023-01-26T11:10:00,axn,47.29
2023-01-26T11:11:00,axn,47.53
2023-01-26T11:12:00,axn,48.53
2023-01-26T11:13:00,axn,46.74
2023-01-26T11:14:00,axn,46.65
2023-01-26T11:15:00,axn,47.52
2023-01-26T11:16:00,axn,47.35
2023-01-26T11:17:00,axn,47.09
2023-01-26T11:18:00,axn,47.27
2023-01-26T11:19:00,axn,47.64
2023-01-26T11:20:00,axn,47.33
2023-01-26T11:21:00,axn,47.52
2023-01-26T11:22:00,axn,47.29
2023-01-26T11:23:00,axn,47.03
2023-01-26T11:24:00,axn,47.05
2023-01-26T11:25:00,axn,47.22
2023-01-26T11:26:00,axn,47.70
2023-01-26T11:27:00,axn,47.37
2023-01-26T11:28:00,axn,47.22
2023-01-26T11:29:00,axn,47.02
2023-01-26T11:30:00,axn,46.88
2023-01-26T11:31:00,axn,46.95
2023-01-26T11:32:00,axn,47.27
2023-01-26T11:33:00,axn,46.84
2023-01-26T11:34:00,axn,47.00
2023-01-26T11:35:00,axn,47.10
2023-01-26T11:36:00,axn,46.77
2023-01-26T11:37:00,axn,46.79
2023-01-26T11:38:00,axn,46.74
2023-01-26T11:39:00,axn,46.73
2023-01-26T11:40:00,axn,46.72
2023-01-26T11:41:00,axn,46.77
2023-01-26T11:42:00,axn,49.36
2023-01-26T11:43:00,axn,49.24
2023-01-26T11:44:00,axn,49.56
2023-01-26T11:45:00,axn,46.94
2023-01-26T11:46:00,axn,46.67
2023-01-26T11:47:00,axn,46.65
2023-01-26T11:48:00,axn,46.51
2023-01-26T11:49:00,axn,46.60
2023-01-26T11:50:00,axn,46.37
2023-01-26T11:51:00,axn,46.76
2023-01-26T11:52:00,axn,46.57
2023-01-26T11:53:00,axn,47.00
2023-01-26T11:54:00,axn,46.97
2023-01-26T11:55:00,axn,47.27
2023-01-26T11:56:00,axn,46.85
2023-01-26T11:57:00,axn,47.64
2023-01-26T11:58:00,axn,47.19
2023-01-26T11:59:00,axn,46.78
2023-01-26T12:00:00,axn,47.55
2023-01-26T12:01:00,axn,47.70
2023-01-26T12:02:00,axn,47.79
2023-01-26T12:03:00,axn,47.81
2023-01-26T12:04:00,axn,47.30
2023-01-26T12:05:00,axn,45.72
2023-01-26T12:06:00,axn,45.70
2023-01-26T12:07:00,axn,45.79
2023-01-26T12:08:00,axn,45.76
2023-01-26T12:09:00,axn,45.72
2023-01-26T12:10:00,axn,45.89
2023-01-26T12:11:00,axn,46.08
2023-01-26T12:12:00,axn,45.54
2023-01-26T12:13:00,axn,45.71
2023-01-26T12:14:00,axn,45.35
2023-01-26T12:15:00,axn,45.29
2023-01-26T12:16:00,axn,44.80
2023-01-26T12:17:00,axn,45.42
2023-01-26T12:18:00,axn,45.35
2023-01-26T12:19:00,axn,45.81
2023-01-26T12:20:00,axn,45.77
2023-01-26T12:21:00,axn,45.50
2023-01-26T12:22:00,axn,45.98
2023-01-26T12:23:00,axn,45.65
2023-01-26T12:24:00,axn,45.78
2023-01-26T12:25:00,axn,45.62
2023-01-26T12:26:00,axn,46.07
2023-01-26T12:27:00,axn,45.80
2023-01-26T12:28:00,axn,45.94
2023-01-26T12:29:00,axn,45.92
2023-01-26T12:30:00,axn,45.65
2023-01-26T12:31:00,axn,45.65
2023-01-26T12:32:00,axn,45.68
2023-01-26T12:33:00,axn,46.94
2023-01-26T12:34:00,axn,44.95
2023-01-26T12:35:00,axn,44.85
2023-01-26T12:36:00,axn,44.27
2023-01-26T12:37:00,axn,44.51
2023-01-26T12:38:00,axn,45.14
2023-01-26T12:39:00,axn,44.25
2023-01-26T12:40:00,axn,44.14
2023-01-26T12:41:00,axn,44.35
2023-01-26T12:42:00,axn,72.19
2023-01-26T12:43:00,axn,51.90
2023-01-26T12:44:00,axn,51.75
2023-01-26T12:45:00,axn,51.93
2023-01-26T12:46:00,axn,52.64
2023-01-26T12:47:00,axn,53.46
2023-01-26T12:48:00,axn,53.66
2023-01-26T12:49:00,axn,53.24
2023-01-26T12:50:00,axn,53.23
2023-01-26T12:51:00,axn,56.35
2023-01-26T12:52:00,axn,56.15
2023-01-26T12:53:00,axn,60.24
2023-01-26T12:54:00,axn,60.40
2023-01-26T12:55:00,axn,57.94
2023-01-26T12:56:00,axn,53.15
2023-01-26T12:57:00,axn,53.25
2023-01-26T12:58:00,axn,53.27
2023-01-26T12:59:00,axn,53.89
2023-01-26T13:00:00,axn,53.51
2023-01-26T13:01:00,axn,52.93
2023-01-26T13:02:00,axn,57.56
2023-01-26T13:03:00,axn,58.35
2023-01-26T13:04:00,axn,58.75
2023-01-26T13:05:00,axn,58.77
2023-01-26T13:06:00,axn,59.09
2023-01-26T13:07:00,axn,58.35
2023-01-26T13:08:00,axn,58.55
2023-01-26T13:09:00,axn,58.58
2023-01-26T13:10:00,axn,58.44
2023-01-26T13:11:00,axn,83.43
2023-01-26T13:12:00,axn,83.20
2023-01-26T13:13:00,axn,83.03
2023-01-26T13:14:00,axn,82.33
2023-01-26T13:15:00,axn,77.20
2023-01-26T13:16:00,axn,72.23
2023-01-26T13:17:00,axn,58.54
2023-01-26T13:18:00,axn,58.33